Location: Pasarilla del Rebollar
(40.6790°N, 5.0062°W)
Time: 10:36:17
(UTC+00:00)

Cosmos 1553 Rocket - Pass Details

Date: 22 April 2026
Orbit: 942 x 1006 km, 82.9° (Epoch: 20 May)

Event Time Altitude Azimuth Distance (km) Brightness Sun altitude
Exits shadow 04:24:04 10° 207° (SSW) 2,685 5.8 -12.6°
Reaches altitude 10° 04:24:04 10° 207° (SSW) 2,685 5.8 -12.6°
Maximum altitude 04:30:01 50° 282° (WNW) 1,225 4.2 -11.6°
Drops below altitude 10° 04:36:06 10° 357° (N) 2,745 6.7 -10.5°
Sets 04:38:45 0° 3° (N) 3,707 7.5 -10.1°
